Change the Weather History Date:

Monday, September 9, 2013

  Actual Average Record
Temperature  
Mean Temperature 87 °F -  
Max Temperature 99 °F 95 °F 109 °F (1998)
Min Temperature 75 °F 74 °F 75 °F (2013)
Cooling Degree Days 22    
Growing Degree Days 37 (Base 50)    
Moisture  
Dew Point 51 °F    
Average Humidity 26    
Maximum Humidity 50    
Minimum Humidity 9    
Precipitation  
Precipitation 0.00 in -9.19 in - ()
Sea Level Pressure  
Sea Level Pressure 29.82 in    
Wind  
Wind Speed 11 mph ()    
Max Wind Speed 20 mph    
Max Gust Speed -    
Visibility 16.0 miles    
Events      
Averages and records for this station are not official NWS values.
T = Trace of Precipitation, MM = Missing Value Source: Averaged Metar Reports

Daily Weather History Graph

Daily Weather History Graph

Search for Another Location

Airport or City:

Trip Planner

Search our weather history database for the weather conditions in past years. The results will help you decide how hot, cold, wet, or windy it might be!

Date:

Astronomy

Sep. 09, 2013 Rise Set
Actual Time 6:21 AM IDT 6:52 PM IDT
Civil Twilight 5:57 AM IDT 7:16 PM IDT
Nautical Twilight 5:29 AM IDT 7:44 PM IDT
Astronomical Twilight 5:00 AM IDT 8:13 PM IDT
Moon 9:59 AM IDT (9/9) 9:17 PM IDT (9/9)
Length of Visible Light 13h 19m
Length of Day
12h 31m
Waxing Crescent, 16% of the Moon is Illuminated
Sep 9
Waxing Crescent
Sep 12
First Quarter
Sep 19
Full
Sep 27
Last Quarter
Oct 5
New

Hourly Weather History & Observations

Time (IDT) Temp. Heat Index Dew Point Humidity Pressure Visibility Wind Dir Wind Speed Gust Speed Precip Events Conditions
3:00 AM 82 °F - 43 °F 16% 29.83 in - NNW 5.8 mph - -  
5:32 AM 77.0 °F - 53.6 °F 44% 29.86 in - NNE 8.1 mph - N/A   Clear
5:50 AM 77.0 °F - 53.6 °F 44% 29.86 in - NNE 8.1 mph - N/A   Clear
6:50 AM 77.0 °F - 57.2 °F 50% 29.86 in - NE 9.2 mph - N/A   Clear
7:50 AM 78.8 °F - 55.4 °F 44% 29.86 in - NE 10.4 mph - N/A   Clear
8:50 AM 84.2 °F 82.8 °F 53.6 °F 35% 29.86 in - NE 13.8 mph - N/A   Clear
9:00 AM 83 °F - 53 °F 25% 29.86 in 16 mi NNE 5.8 mph - -  
9:50 AM 84.2 °F 82.8 °F 53.6 °F 35% 29.86 in - NE 16.1 mph - N/A   Clear
10:50 AM 87.8 °F - 51.8 °F 29% 29.86 in - NE 17.3 mph - N/A   Clear
11:50 AM 93.2 °F - 50.0 °F 23% 29.83 in - NNE 17.3 mph - N/A   Clear
12:50 PM 95.0 °F - 48.2 °F 20% 29.80 in - ENE 18.4 mph - N/A   Clear
1:50 PM 96.8 °F - 50.0 °F 20% 29.80 in - NE 18.4 mph - N/A   Clear
2:50 PM 98.6 °F - 48.2 °F 18% 29.77 in - NE 17.3 mph - N/A   Clear
3:00 PM 99 °F - 47 °F 9% 29.76 in 16 mi NNE 10.4 mph - -  
3:50 PM 98.6 °F - 46.4 °F 17% 29.77 in - NE 18.4 mph - N/A   Clear
4:50 PM 98.6 °F - 48.2 °F 18% 29.74 in - NE 19.6 mph - N/A   Clear
5:50 PM 96.8 °F - 48.2 °F 19% 29.77 in - NE 19.6 mph - N/A   Clear
6:50 PM 95.0 °F - 48.2 °F 20% 29.77 in - NE 18.4 mph - N/A   Clear
7:50 PM 93.2 °F - 50.0 °F 23% 29.80 in - NNE 12.7 mph - N/A   Clear
8:50 PM 91.4 °F - 51.8 °F 26% 29.83 in - North 11.5 mph - N/A   Clear
9:00 PM 91 °F - 53 °F 18% 29.83 in - NNW 10.4 mph - -  
9:50 PM 89.6 °F - 51.8 °F 27% 29.86 in - North 13.8 mph - N/A   Clear
10:50 PM 87.8 °F - 48.2 °F 25% 29.86 in - NE 15.0 mph - N/A   Clear
11:50 PM 86.0 °F - 50.0 °F 29% 29.86 in - NNE 11.5 mph - N/A   Clear